This demonstration page uses our WeatherBlox Daily Observations layout. Learn more.

Left ArrowRight Arrow

Hourly Observations for May 13, 2021

Temp ( °F °C ) Dew Point ( °F °C ) Humidity (%) Winds ( mph kmh ) Pressure ( in mb ) Visibility ( mi km ) Precip ( " mm )
12:53 am 00:53 Clear 50 10 36 2.2 59 59 S 13 20 30.07 1018 10 16 0.00 0.00
1:53 am 01:53 Clear 50 10 37 2.8 61 61 SSE 3 6 30.06 1018 10 16 0.00 0.00
2:53 am 02:53 Clear 49 9.4 37 2.8 64 64 E 8 13 30.04 1017 10 16 0.00 0.00
3:53 am 03:53 Mostly Cloudy 48 8.9 38 3.3 68 68 ENE 6 9 30.04 1017 10 16 0.00 0.00
4:53 am 04:53 Cloudy 48 8.9 39 3.9 71 71 NNW 5 7 30.06 1018 10 16 0.00 0.00
5:53 am 05:53 Cloudy 47 8.3 40 4.4 77 77 Calm 30.06 1018 10 16 0.00 0.00
6:53 am 06:53 Cloudy 49 9.4 41 5 74 74 S 3 6 30.06 1018 10 16 0.00 0.00
7:53 am 07:53 Cloudy 53 11.7 40 4.4 61 61 SSW 5 7 30.07 1018 10 16 0.00 0.00
8:53 am 08:53 Cloudy 55 12.8 41 5 59 59 Calm 30.09 1019 10 16 0.00 0.00
9:53 am 09:53 Cloudy 57 13.9 42 5.6 58 58 E 5 7 30.09 1019 10 16 0.00 0.00
10:53 am 10:53 Cloudy 60 15.6 41 5 50 50 ENE 3 6 30.09 1019 10 16 0.00 0.00
11:53 am 11:53 Cloudy 61 16.1 39 3.9 44 44 Calm 30.09 1019 10 16 0.00 0.00
12:53 pm 12:53 Cloudy 64 17.8 38 3.3 38 38 VRB 3 6 30.08 1019 10 16 0.00 0.00
1:53 pm 13:53 Cloudy 64 17.8 38 3.3 38 38 WSW 6 9 30.07 1018 10 16 0.00 0.00
2:53 pm 14:53 Cloudy 64 17.8 37 2.8 37 37 VRB 3 6 30.07 1018 10 16 0.00 0.00
3:53 pm 15:53 Mostly Cloudy 65 18.3 38 3.3 37 37 Calm 30.05 1018 10 16 0.00 0.00
4:53 pm 16:53 Cloudy 64 17.8 39 3.9 40 40 Calm 30.05 1018 10 16 0.00 0.00
5:53 pm 17:53 Mostly Cloudy 63 17.2 41 5 45 45 WSW 8 13 30.06 1018 10 16 0.00 0.00
6:53 pm 18:53 Partly Cloudy 62 16.7 42 5.6 48 48 SSW 10 17 30.06 1018 10 16 0.00 0.00
7:53 pm 19:53 Mostly Cloudy 59 15 43 6.1 56 56 ENE 5 7 30.07 1018 10 16 0.00 0.00
8:53 pm 20:53 Clear 55 12.8 42 5.6 62 62 E 6 9 30.08 1019 10 16 0.00 0.00
9:03 pm 21:03 Clear with Nearby Thunderstorms 53 11.7 43 6.1 69 69 ESE 3 6 30.06 1018 10 16 0.00 0.00
9:20 pm 21:20 Mostly Cloudy with Thunderstorms 55 12.8 42 5.6 62 62 VRB 7 11 30.09 1019 10 16 0.00 0.00
9:35 pm 21:35 Cloudy with Light Rain 52 11.1 46 7.8 80 80 N 8 13 30.12 1020 4 6 0.06 1.52
9:53 pm 21:53 Cloudy with Light Rain 52 11.1 46 7.8 80 80 ENE 9 15 30.11 1020 10 16 0.07 1.78
10:53 pm 22:53 Clear 50 10 46 7.8 86 86 E 8 13 30.10 1019 10 16 0.00 0.00
11:53 pm 23:53 Clear 48 8.9 44 6.7 86 86 E 3 6 30.10 1019 10 16 0.00 0.00

Powered by AerisWeather